#timestamp,LO_Frequency,Hit,StdDev 
1622181615.5,286046999.4,N
1622181635.3,286046999.0,N
1622181655.2,286046998.9,N
1622181675.0,286046998.4,N
1622181675.9,286046998.4,N
1622181695.8,286047000.2,N
1622181715.6,286047000.5,N
1622181735.4,286047000.8,N
1622181755.3,286047000.2,N
1622181775.1,286046999.0,N
1622181795.9,286046997.7,N
1622181815.7,286046993.4,Y
1622181835.5,286046991.8,P
1622181855.4,286046992.1,N
1622181875.2,286046994.1,N
1622181895.1,286046996.8,N
1622181896.0,286046996.8,N
1622181915.8,286046998.7,N
1622181935.6,286046998.3,N
1622181955.5,286046998.6,N
1622181975.3,286046998.7,N
1622181995.1,286047000.5,N
1622182015.9,286046999.2,N
1622182035.7,286046999.0,N
1622182055.6,286046995.7,N
1622182075.4,286046997.3,N
1622182095.2,286047000.6,N
1622182115.1,286047002.3,N
1622182116.0,286047002.3,N
1622182135.8,286047002.3,N
1622182155.6,286047002.3,N
1622182175.5,286046999.3,N
1622182195.3,286046999.3,N
1622182215.2,286047000.1,N
1622182235.9,286047000.5,N
1622182255.7,286047000.3,N
1622182275.6,286047001.7,N
1622182295.4,286047004.0,N
1622182315.2,286047004.4,N
1622182335.1,286047001.3,N
1622182336.0,286047001.3,N
1622182355.8,286047001.7,N
1622182375.7,286047002.2,N
1622182395.5,286047002.6,N
1622182415.3,286047002.6,N
1622182435.2,286047001.4,N
1622182455.0,286047003.5,N
1622182455.9,286047003.5,N
1622182475.8,286047005.3,N
1622182495.6,286047006.7,Y
1622182515.4,286047005.5,P
1622182535.3,286047002.9,N
1622182555.1,286047003.0,N
1622182575.8,286047003.3,N
1622182595.7,286046999.9,N
1622182615.5,286047002.0,N
1622182635.4,286047005.7,Y
1622182655.2,286047003.5,P
1622182675.0,286047004.3,P
1622182676.0,286047004.3,P
1622182695.8,286047003.7,Y
1622182715.6,286046998.4,P
1622182735.5,286046998.3,N
1622182755.3,286047001.2,N
1622182775.1,286046998.2,N
1622182795.9,286046996.6,N
1622182815.7,286046999.5,N
1622182835.6,286046999.3,N
1622182855.4,286047000.8,N
1622182875.2,286046999.1,N
1622182895.1,286046999.7,N
1622182896.0,286046999.7,N
1622182915.8,286047002.5,N
1622182935.7,286046998.5,N
1622182955.5,286046998.7,N
1622182975.3,286046998.3,N
1622182995.2,286046999.6,N
1622183015.0,286046998.9,N
1622183015.9,286046998.9,N
1622183035.7,286046996.8,N
1622183055.6,286046999.1,N
1622183075.4,286046999.1,N
1622183095.3,286047000.7,N
1622183115.1,286047001.3,N
1622183116.0,286047001.3,N
1622183135.8,286047004.2,N
1622183155.7,286046999.7,N
1622183175.5,286046999.9,N
1622183195.3,286047002.4,N
1622183215.2,286047001.7,N
1622183235.0,286047001.7,N
1622183235.9,286047001.7,N
1622183255.8,286047000.9,N
1622183275.6,286047002.3,N
1622183295.4,286046998.4,N
1622183315.3,286046998.6,N
1622183335.1,286047001.1,N
1622183355.8,286047000.1,N
1622183375.7,286047001.1,N
1622183395.5,286046998.5,N
1622183415.3,286047000.3,N
1622183435.2,286047002.6,N
1622183455.0,286047001.3,N
1622183455.9,286047001.3,N
1622183475.8,286047004.0,N
1622183495.6,286047001.7,N
1622183515.4,286047002.5,N
1622183535.3,286047002.1,N
1622183555.1,286047001.9,N
1622183575.9,286047002.6,N
1622183595.7,286047002.2,N
1622183615.5,286046999.9,N
1622183635.4,286047000.4,N
1622183655.2,286047000.3,N
1622183675.0,286047000.2,N
1622183675.9,286047000.2,N
1622183695.8,286047000.5,N
1622183715.6,286047002.7,N
1622183735.5,286046998.1,N
1622183755.3,286046999.5,N
1622183775.1,286046998.9,N
1622183795.9,286047001.2,N
1622183815.7,286046996.5,N
1622183835.5,286046999.2,N
1622183855.4,286047000.4,N
1622183875.2,286047002.5,N
1622183895.0,286047000.1,N
1622183896.0,286047000.1,N
1622183915.8,286047000.4,N
1622183935.6,286046998.2,N
1622183955.5,286046998.8,N
1622183975.3,286047001.9,N
1622183995.1,286046999.8,N
1622184015.9,286047000.3,N
1622184035.7,286047002.3,N
1622184055.6,286047002.5,N
1622184075.4,286047000.1,N
1622184095.2,286046999.9,N
1622184115.1,286046998.4,N
1622184116.0,286046998.4,N
1622184135.8,286046999.4,N
1622184155.7,286046996.7,N
1622184175.5,286047001.0,N
1622184195.3,286046998.7,N
1622184215.2,286046997.7,N
1622184235.0,286046998.9,N
1622184235.9,286046998.9,N
1622184255.7,286047001.2,N
1622184275.6,286047000.2,N
1622184295.4,286047000.2,N
1622184315.3,286047001.1,N
1622184335.1,286047001.0,N
1622184355.8,286047000.1,N
1622184375.7,286046999.7,N
1622184395.5,286047000.4,N
1622184415.4,286046998.5,N
1622184435.2,286047000.0,N
1622184455.0,286047000.1,N
1622184455.9,286047000.1,N
1622184475.8,286047001.5,N
1622184495.6,286047001.4,N
1622184515.4,286047001.6,N
1622184535.3,286047002.1,N
1622184555.1,286047001.5,N
1622184575.9,286047000.9,N
1622184595.7,286046999.0,N
1622184615.5,286046996.5,N
1622184635.4,286046996.2,N
1622184655.2,286046996.2,N
1622184675.0,286046995.5,N
1622184675.9,286046995.5,N
1622184695.8,286046999.3,N
1622184715.6,286047001.2,N
1622184735.5,286047001.1,N
1622184755.3,286047001.2,N
1622184775.1,286047001.2,N
1622184795.9,286047000.9,N
1622184815.7,286046998.7,N
1622184835.5,286046998.3,N
1622184855.4,286047000.7,N
1622184875.2,286047000.8,N
1622184895.1,286047002.7,N
1622184896.0,286047002.7,N
1622184915.8,286046999.9,N
1622184935.6,286047000.2,N
1622184955.5,286046998.7,N
1622184975.3,286046998.5,N
1622184995.1,286047000.9,N
1622185015.9,286046998.3,N
1622185035.7,286046998.0,N
1622185055.6,286046998.8,N
1622185075.4,286046999.8,N
1622185095.2,286046998.3,N
1622185115.1,286046998.3,N
1622185116.0,286046998.3,N
1622185135.8,286047000.8,N
1622185155.7,286047000.7,N
1622185175.5,286047002.4,N
1622185195.3,286047000.5,N
